Tracking 17844 objects as of 27-August-2016
HD Live streaming from Space Station
objects crossing your sky now

BREEZE-M R/B

Track BREEZE-M R/B now!


NORAD ID: 28925
Int'l Code: 2005-052B
Perigee: 6,177.3 km
Apogee: 35,364.3 km
Inclination: 19.5 °
Period: 741.7 minutes
Semi major axis: 27141 km
RCS: 0.6439 m2 (medium)
Launch date: December 29, 2005
Source: Commonwealth of Independent States (former USSR) (CIS)
Launch site: TYURATAM MISSILE AND SPACE COMPLEX (TTMTR)

Note: This is a ROCKET BODY
Your satellite tracking list
Your tracking list is empty





NASA's NSSDC Master Catalog

Two Line Element Set (TLE):
1 28925U 05052B   16238.86295492 -.00000123 +00000-0 +00000-0 0  9990
2 28925 019.5319 032.3395 5376757 139.1523 222.9325 01.94153050075505
Source of the keplerian elements: AFSPC

N2YO: 478